Fairfield, IL

5:37 AM CDT on May 30, 2017 (GMT -0500)
Fairfield Municipal

Weather History for KFWC - March, 2013

Change the Weather History Date:

Friday, March 29, 2013

  Actual Average (KEVV) Record (KEVV)
Temperature  
Mean Temperature 48 °F -  
Max Temperature 55 °F 61 °F 82 °F (1963)
Min Temperature 39 °F 43 °F 23 °F (1955)
Degree Days  
Heating Degree Days 17    
Moisture  
Dew Point 40 °F    
Average Humidity 78    
Maximum Humidity 93    
Minimum Humidity 53    
Precipitation  
Precipitation 0.01 in - - ()
Sea Level Pressure  
Sea Level Pressure 30.25 in    
Wind  
Wind Speed 3 mph (ESE)    
Max Wind Speed 8 mph    
Max Gust Speed -    
Visibility 9 miles    
Events Fog , Rain    
Averages and records for this station are not official NWS values.
T = Trace of Precipitation, MM = Missing Value Source: NWS Daily Summary

Daily Weather History Graph

Daily Weather History Graph

Search for Another Location

Airport or City:

Trip Planner

Search our weather history database for the weather conditions in past years. The results will help you decide how hot, cold, wet, or windy it might be!

Date:

Astronomy

Mar. 29, 2013 Rise Set
Actual Time 6:42 AM CDT 7:14 PM CDT
Civil Twilight 6:16 AM CDT 7:40 PM CDT
Nautical Twilight 5:44 AM CDT 8:12 PM CDT
Astronomical Twilight 5:12 AM CDT 8:44 PM CDT
Moon 10:11 PM CDT (3/29) 7:53 AM CDT (3/29)
Length of Visible Light 13h 24m
Length of Day
12h 31m
Waning Gibbous, 93% of the Moon is Illuminated
Mar 29
Waning Gibbous
Apr 2
Last Quarter
Apr 10
New
Apr 18
First Quarter
Apr 25
Full

Hourly Weather History & Observations

Time (CDT) Temp. Windchill Dew Point Humidity Pressure Visibility Wind Dir Wind Speed Gust Speed Precip Events Conditions
12:15 AM 46.4 °F - 30.2 °F 53% 30.29 in 10.0 mi Calm Calm - N/A   Mostly Cloudy
12:35 AM 46.4 °F - 30.2 °F 53% 30.29 in 10.0 mi Calm Calm - N/A   Overcast
12:55 AM 44.6 °F 42.2 °F 30.2 °F 57% 30.29 in 10.0 mi East 4.6 mph - N/A   Overcast
1:15 AM 44.6 °F 42.2 °F 30.2 °F 57% 30.28 in 10.0 mi East 4.6 mph - N/A   Mostly Cloudy
1:35 AM 44.6 °F 42.2 °F 30.2 °F 57% 30.29 in 10.0 mi East 4.6 mph - N/A   Mostly Cloudy
1:55 AM 44.6 °F 42.2 °F 30.2 °F 57% 30.29 in 10.0 mi East 4.6 mph - N/A   Mostly Cloudy
2:15 AM 44.6 °F - 30.2 °F 57% 30.29 in 10.0 mi Calm Calm - N/A   Scattered Clouds
2:35 AM 42.8 °F - 32.0 °F 66% 30.28 in 10.0 mi Calm Calm - N/A   Scattered Clouds
2:55 AM 42.8 °F - 32.0 °F 66% 30.28 in 10.0 mi Calm Calm - N/A   Scattered Clouds
3:15 AM 42.8 °F - 30.2 °F 61% 30.28 in 10.0 mi Calm Calm - N/A   Mostly Cloudy
3:35 AM 42.8 °F - 32.0 °F 66% 30.28 in 10.0 mi Calm Calm - N/A   Overcast
3:55 AM 42.8 °F - 32.0 °F 66% 30.27 in 10.0 mi Calm Calm - N/A   Overcast
4:15 AM 42.8 °F - 33.8 °F 70% 30.27 in 10.0 mi Calm Calm - N/A   Overcast
4:35 AM 44.6 °F - 33.8 °F 66% 30.27 in 10.0 mi Calm Calm - N/A   Overcast
4:55 AM 42.8 °F 40.1 °F 33.8 °F 70% 30.27 in 10.0 mi ESE 4.6 mph - N/A Rain Light Rain
5:15 AM 42.8 °F 39.3 °F 35.6 °F 76% 30.26 in 10.0 mi SE 5.8 mph - N/A   Drizzle
5:35 AM 42.8 °F 41.1 °F 35.6 °F 76% 30.27 in 10.0 mi ESE 3.5 mph - N/A   Light Drizzle
5:55 AM 42.8 °F 40.1 °F 37.4 °F 81% 30.26 in 10.0 mi ESE 4.6 mph - N/A Rain Light Rain
6:15 AM 42.8 °F 40.1 °F 37.4 °F 81% 30.27 in 10.0 mi East 4.6 mph - N/A Rain Light Rain
6:35 AM 41.0 °F 38.0 °F 37.4 °F 87% 30.27 in 7.0 mi East 4.6 mph - 0.01 in Rain Light Rain
6:55 AM 41.0 °F 39.0 °F 37.4 °F 87% 30.27 in 10.0 mi ESE 3.5 mph - 0.01 in   Light Drizzle
7:15 AM 41.0 °F 36.4 °F 37.4 °F 87% 30.27 in 10.0 mi SSE 6.9 mph - N/A Rain Rain
7:35 AM 41.0 °F 39.0 °F 37.4 °F 87% 30.27 in 7.0 mi ESE 3.5 mph - N/A   Drizzle
7:55 AM 42.8 °F - 37.4 °F 81% 30.28 in 7.0 mi Calm Calm - N/A   Light Drizzle
8:15 AM 42.8 °F 41.1 °F 37.4 °F 81% 30.27 in 10.0 mi ESE 3.5 mph - N/A   Overcast
8:35 AM 42.8 °F - 37.4 °F 81% 30.28 in 10.0 mi Calm Calm - N/A   Overcast
8:55 AM 42.8 °F - 39.2 °F 87% 30.28 in 10.0 mi Calm Calm - N/A   Overcast
9:15 AM 42.8 °F 40.1 °F 39.2 °F 87% 30.28 in 10.0 mi ESE 4.6 mph - N/A   Overcast
9:35 AM 44.6 °F 42.2 °F 39.2 °F 81% 30.27 in 10.0 mi East 4.6 mph - N/A   Overcast
9:55 AM 44.6 °F 42.2 °F 41.0 °F 87% 30.27 in 7.0 mi East 4.6 mph - N/A   Overcast
10:15 AM 46.4 °F 43.5 °F 42.8 °F 87% 30.27 in 10.0 mi ESE 5.8 mph - N/A   Overcast
10:35 AM 48.2 °F - 42.8 °F 82% 30.27 in 10.0 mi ESE 8.1 mph - N/A   Overcast
10:55 AM 50.0 °F - 44.6 °F 82% 30.28 in 10.0 mi ESE 8.1 mph - N/A   Overcast
11:15 AM 48.2 °F - 44.6 °F 87% 30.27 in 10.0 mi SSE 5.8 mph - N/A   Mostly Cloudy
11:35 AM 50.0 °F - 44.6 °F 82% 30.27 in 10.0 mi SE 5.8 mph - N/A   Overcast
11:55 AM 51.8 °F - 46.4 °F 82% 30.26 in 10.0 mi SE 6.9 mph - N/A   Overcast
12:15 PM 53.6 °F - 46.4 °F 77% 30.26 in 10.0 mi SE 5.8 mph - N/A   Mostly Cloudy
12:35 PM 53.6 °F - 46.4 °F 77% 30.25 in 10.0 mi SE 8.1 mph - N/A   Overcast
12:55 PM 53.6 °F - 46.4 °F 77% 30.25 in 10.0 mi ESE 5.8 mph - N/A   Overcast
1:15 PM 53.6 °F - 46.4 °F 77% 30.25 in 10.0 mi SE 4.6 mph - N/A   Overcast
1:35 PM 53.6 °F - 46.4 °F 77% 30.24 in 10.0 mi ESE 6.9 mph - N/A   Overcast
1:55 PM 53.6 °F - 46.4 °F 77% 30.24 in 10.0 mi ESE 8.1 mph - N/A   Overcast
2:15 PM 53.6 °F - 46.4 °F 77% 30.23 in 10.0 mi Calm Calm - N/A   Overcast
2:35 PM 53.6 °F - 46.4 °F 77% 30.23 in 10.0 mi East 5.8 mph - N/A   Overcast
2:55 PM 55.4 °F - 46.4 °F 72% 30.22 in 10.0 mi SE 6.9 mph - N/A   Overcast
3:15 PM 55.4 °F - 44.6 °F 67% 30.22 in 10.0 mi East 3.5 mph - N/A   Overcast
3:35 PM 55.4 °F - 46.4 °F 72% 30.22 in 10.0 mi ESE 4.6 mph - N/A   Overcast
3:55 PM 55.4 °F - 46.4 °F 72% 30.21 in 10.0 mi ESE 3.5 mph - N/A   Overcast
4:15 PM 53.6 °F - 44.6 °F 72% 30.22 in 10.0 mi SE 5.8 mph - N/A   Overcast
4:35 PM 53.6 °F - 46.4 °F 77% 30.21 in 10.0 mi East 4.6 mph - N/A   Overcast
4:55 PM 53.6 °F - 46.4 °F 77% 30.21 in 10.0 mi SE 3.5 mph - N/A   Overcast
5:15 PM 53.6 °F - 46.4 °F 77% 30.21 in 10.0 mi SE 3.5 mph - N/A   Overcast
5:35 PM 53.6 °F - 46.4 °F 77% 30.21 in 10.0 mi East 5.8 mph - N/A   Overcast
5:55 PM 53.6 °F - 46.4 °F 77% 30.21 in 10.0 mi ESE 3.5 mph - N/A   Overcast
6:15 PM 53.6 °F - 46.4 °F 77% 30.22 in 10.0 mi ESE 3.5 mph - N/A   Overcast
6:35 PM 53.6 °F - 46.4 °F 77% 30.21 in 10.0 mi SE 4.6 mph - N/A   Overcast
6:55 PM 51.8 °F - 46.4 °F 82% 30.21 in 10.0 mi SE 4.6 mph - N/A   Overcast
7:15 PM 50.0 °F - 44.6 °F 82% 30.21 in 10.0 mi SSE 4.6 mph - N/A   Scattered Clouds
7:35 PM 50.0 °F - 44.6 °F 82% 30.21 in 10.0 mi Calm Calm - N/A   Clear
7:55 PM 48.2 °F - 44.6 °F 87% 30.21 in 10.0 mi Calm Calm - N/A   Clear
8:15 PM 46.4 °F - 44.6 °F 93% 30.22 in 10.0 mi Calm Calm - N/A   Clear
8:35 PM 46.4 °F - 42.8 °F 87% 30.23 in 10.0 mi Calm Calm - N/A   Clear
8:55 PM 46.4 °F - 42.8 °F 87% 30.23 in 10.0 mi Calm Calm - N/A   Clear
9:15 PM 42.8 °F - 39.2 °F 87% 30.24 in 5.0 mi Calm Calm - N/A   Clear
9:35 PM 42.8 °F - 39.2 °F 87% 30.24 in 5.0 mi Calm Calm - N/A   Clear
9:55 PM 42.8 °F - 39.2 °F 87% 30.24 in 4.0 mi Calm Calm - N/A   Clear
10:15 PM 41.0 °F - 37.4 °F 87% 30.25 in 3.0 mi Calm Calm - N/A   Clear
10:35 PM 42.8 °F - 39.2 °F 87% 30.24 in 2.0 mi Calm Calm - N/A   Clear
10:55 PM 41.0 °F - 39.2 °F 93% 30.24 in 1.5 mi Calm Calm - N/A   Clear
11:15 PM 41.0 °F - 39.2 °F 93% 30.24 in 0.2 mi Calm Calm - N/A Fog Fog
11:35 PM 41.0 °F - 39.2 °F 93% 30.23 in 0.2 mi Calm Calm - N/A Fog Fog
11:55 PM 39.2 °F - 37.4 °F 93% 30.23 in 0.2 mi Calm Calm - N/A Fog Fog